Location: Unspecified
(36.9193°S, 174.7252°E)
Time: 00:07:26
(UTC+13:00)

Envisat - Pass Details

Date: 27 September 2021
Orbit: 764 x 766 km, 98.2° (Epoch: 25 October)

Event Time Altitude Azimuth Distance (km) Brightness Sun altitude
Rises 19:54:24 0° 189° (S) 3,268 6.5 -7.4°
Reaches altitude 10° 19:57:45 10° 212° (SSW) 2,333 6.1 -8.0°
Maximum altitude 20:00:26 14° 243° (WSW) 2,030 6.5 -8.6°
Drops below altitude 10° 20:03:06 10° 275° (W) 2,319 7.0 -9.1°
Sets 20:06:26 0° 298° (WNW) 3,235 7.2 -9.8°
